CZ-2D R/B, 28738

Orbit data source: Space-Track

CZ-2D R/B, 28738 is space debris in SSO originally from a launch on Tue, 05 Jul 2005 UTC launched from the Jiuquan Satellite Launch Center, China (JSC). Debris objects in space refer to the collection of defunct objects orbiting the Earth. Examples of debris include non-operational satellites, rocket bodies, and fragments generated from explosions, collisions, or faulty payload assembly.

Loading next visibility...
Identifier
28738, 2005-024B
Orbit
SSO
Country
Flag of CNCN / PRC
Related business
Manufacturer
BWYIC
Mission
Spacecraft
Bus & Motor
CZ-2 STAGE 2, Unknown motor
Mass
4,006 kg wet, 4,006 kg dry
Launch date (UTC)
2005-07-05 (21 years ago)
Launch vehicle
Unknown
Launch site
Jiuquan Satellite Launch Center, China (JSC)
Object type
Payload
Rocket body
Debris
Shape & HBR
Cyl, 4.0 m
Radar Cross Section
25.456 m², Large (>1 m²)

Expand to show TLE details & history
Last TLE update: 3 days ago

TLE from 3 days ago
0 CZ-2D R/B
1 28738U 05024B   26171.02428521  .00051696  00000-0  43299-3 0  9997
2 28738  97.3481 190.5942 0002905  47.7196 312.4312 15.69825717155785
Epoch: 2026-06-20T00:34Z
TLE epoch observation values (Epoch: 2026-06-20T00:34:58.242Z)
Latitude
-0.00001°
Longitude
-86.39332°
Altitude
361.234 km
Speed
7.693 km/s
True Right ascension
12h 42m 22s
True Declination
0° 00' 00"
Sunlit
Object was in daylight at epoch
Visualization orbit readout
Latitude
Unknown
Longitude
Unknown
Altitude
Unknown
Speed
Unknown
Apparent Right ascension
Unknown
Apparent Declination
Unknown
Sunlit
N/A
Visualization observer readout
Local Sidereal Time
00:51:11
Azimuth
Unknown
Elevation
Unknown
Doppler factor
Unknown
Orbital elements
Apogee altitude
358.249 km
Perigee altitude
354.337 km
Semi-major axis
6,734.43 km
Eccentricity
0.00029
Inclination
97.3481°
RAAN
190.5942°
Arg. of periapsis
47.7196°
True anomaly
312.40662°
Mean anomaly
312.4312°
Eccentric anomaly
312.41891°
Mean motion
3.92728 °/min
Orbital period
91.67 mins
BSTAR
0.00043299
Loading maneuver chart data...
Computing Atmospheric mass density...
Loading historical data...
Loading historical data...
Loading historical data...
Loading historical data...
Loading historical data...
Loading historical data...
Loading historical data...

Documentation

Showing up to 5 results
|